Weather History for KTBN - February, 2015

Change the Weather History Date:

Wednesday, February 11, 2015

  Actual Average Record
Temperature  
Mean Temperature 33 °F -  
Max Temperature 40 °F 45 °F 69 °F (1999)
Min Temperature 25 °F 30 °F 4 °F (2014)
Degree Days  
Heating Degree Days 32    
Moisture  
Dew Point 27 °F    
Average Humidity 78    
Maximum Humidity 98    
Minimum Humidity 64    
Precipitation  
Precipitation 0.00 in - - ()
Sea Level Pressure  
Sea Level Pressure 30.21 in    
Wind  
Wind Speed 7 mph (NW)    
Max Wind Speed 16 mph    
Max Gust Speed 24 mph    
Visibility 10 miles    
Events      
Averages and records for this station are not official NWS values.
T = Trace of Precipitation, MM = Missing Value Source: NWS Daily Summary

Daily Weather History Graph

Daily Weather History Graph

Search for Another Location

Airport or City:

Trip Planner

Search our weather history database for the weather conditions in past years. The results will help you decide how hot, cold, wet, or windy it might be!

Date:

Astronomy

Feb. 11, 2015 Rise Set
Actual Time 7:02 AM CST 5:43 PM CST
Civil Twilight 6:35 AM CST 6:10 PM CST
Nautical Twilight 6:05 AM CST 6:41 PM CST
Astronomical Twilight 5:34 AM CST 7:11 PM CST
Moon 12:06 AM CST (2/11) 11:00 AM CST (2/11)
Length of Visible Light 11h 34m
Length of Day
10h 40m
Waning Gibbous, 54% of the Moon is Illuminated
Feb 11
Waning Gibbous
Feb 11
Last Quarter
Feb 18
New
Feb 25
First Quarter
Mar 5
Full

Hourly Weather History & Observations

Time (CST) Temp. Windchill Dew Point Humidity Pressure Visibility Wind Dir Wind Speed Gust Speed Precip Events Conditions
12:58 AM 31.5 °F 28.1 °F 27.1 °F 84% 30.07 in 10.0 mi SSE 3.5 mph - N/A   Clear
1:58 AM 30.6 °F 23.8 °F 27.5 °F 88% 30.06 in 10.0 mi SSE 6.9 mph - N/A   Clear
2:58 AM 29.5 °F 25.9 °F 26.8 °F 90% 30.06 in 10.0 mi SSE 3.5 mph - N/A   Clear
3:58 AM 28.9 °F - 26.8 °F 92% 30.06 in 10.0 mi Calm Calm - N/A   Clear
4:58 AM 29.7 °F - 27.7 °F 92% 30.08 in 10.0 mi SSW 2.3 mph - N/A   Overcast
5:58 AM 27.7 °F 22.4 °F 27.1 °F 98% 30.11 in 10.0 mi West 4.6 mph - N/A   Clear
6:58 AM 28.9 °F 25.2 °F 27.7 °F 95% 30.14 in 10.0 mi West 3.5 mph - N/A   Clear
7:58 AM 33.1 °F 26.9 °F 28.6 °F 84% 30.16 in 10.0 mi WNW 6.9 mph - N/A   Clear
8:58 AM 36.9 °F 29.6 °F 29.5 °F 75% 30.17 in 10.0 mi NNW 10.4 mph - N/A   Partly Cloudy
9:08 AM 37.4 °F 29.8 °F 32.0 °F 81% 30.15 in 10.0 mi NNW 11.5 mph - N/A   Mostly Cloudy
9:58 AM 39.6 °F 32.1 °F 32.7 °F 76% 30.19 in 10.0 mi North 12.7 mph 21.9 mph N/A   Overcast
10:58 AM 39.7 °F 33.2 °F 32.5 °F 75% 30.22 in 10.0 mi NNW 10.4 mph - N/A   Overcast
11:58 AM 39.7 °F 32.3 °F 33.8 °F 79% 30.23 in 10.0 mi NW 12.7 mph 17.3 mph N/A   Overcast
12:58 PM 40.6 °F 34.8 °F 31.5 °F 70% 30.22 in 10.0 mi WNW 9.2 mph - N/A   Overcast
1:58 PM 38.7 °F 29.8 °F 29.3 °F 69% 30.23 in 10.0 mi NNW 16.1 mph 20.7 mph N/A   Overcast
2:58 PM 37.4 °F 28.5 °F 27.9 °F 68% 30.25 in 10.0 mi NW 15.0 mph 19.6 mph N/A   Overcast
3:58 PM 37.0 °F 28.9 °F 25.7 °F 64% 30.25 in 10.0 mi NNW 12.7 mph - N/A   Mostly Cloudy
4:58 PM 35.8 °F 28.3 °F 24.8 °F 64% 30.27 in 10.0 mi NW 10.4 mph 19.6 mph N/A   Overcast
5:28 PM 35.6 °F 28.0 °F 24.8 °F 65% 30.23 in 10.0 mi NW 10.4 mph - N/A   Overcast
5:58 PM 35.1 °F 26.4 °F 24.1 °F 64% 30.27 in 10.0 mi NW 12.7 mph - N/A   Overcast
6:58 PM 34.0 °F 26.0 °F 23.9 °F 67% 30.30 in 10.0 mi NNW 10.4 mph 19.6 mph N/A   Overcast
7:58 PM 31.3 °F 21.6 °F 22.6 °F 70% 30.32 in 10.0 mi NNW 12.7 mph 24.2 mph N/A   Overcast
8:58 PM 29.1 °F 20.6 °F 21.7 °F 74% 30.33 in 10.0 mi NW 9.2 mph - N/A   Overcast
9:13 PM 28.4 °F 20.4 °F 21.2 °F 74% 30.29 in 10.0 mi NW 8.1 mph - N/A   Scattered Clouds
9:58 PM 26.8 °F 20.2 °F 20.8 °F 78% 30.33 in 10.0 mi WNW 5.8 mph - N/A   Clear
10:58 PM 26.2 °F 18.6 °F 20.8 °F 80% 30.34 in 10.0 mi WNW 6.9 mph - N/A   Clear
11:58 PM 25.7 °F 15.7 °F 20.7 °F 81% 30.35 in 10.0 mi WNW 10.4 mph - N/A   Clear